Weather History for Bentonville, AR

Change the Weather History Date:

Thursday, April 12, 2012

  Actual Average Record
Temperature  
Mean Temperature 60 °F -  
Max Temperature 66 °F 69 °F 88 °F (1972)
Min Temperature 55 °F 44 °F 21 °F (1989)
Degree Days  
Heating Degree Days 4    
Growing Degree Days 10 (Base 50)    
Moisture  
Dew Point 42 °F    
Average Humidity 51    
Maximum Humidity 63    
Minimum Humidity 39    
Precipitation  
Precipitation 0.00 in - - ()
Sea Level Pressure  
Sea Level Pressure 30.07 in    
Wind  
Wind Speed 9 mph (SE)    
Max Wind Speed 15 mph    
Max Gust Speed 21 mph    
Visibility 10 miles    
Events      
Averages and records for this station are not official NWS values.
T = Trace of Precipitation, MM = Missing Value Source: NWS Daily Summary

Daily Weather History Graph

Daily Weather History Graph

Search for Another Location

Airport:

Trip Planner

Search our weather history database for the weather conditions in past years. The results will help you decide how hot, cold, wet, or windy it might be!

Date:

Astronomy

Apr. 12, 2012 Rise Set
Actual Time 6:46 AM CDT 7:48 PM CDT
Civil Twilight 6:20 AM CDT 8:15 PM CDT
Nautical Twilight 5:49 AM CDT 8:46 PM CDT
Astronomical Twilight 5:16 AM CDT 9:19 PM CDT
Moon 1:31 AM CDT (4/12) 11:47 AM CDT (4/12)
Length of Visible Light 13h 54m
Length of Day
13h 02m
Waning Gibbous, 58% of the Moon is Illuminated
Apr 12
Waning Gibbous
Apr 13
Last Quarter
Apr 21
New
Apr 29
First Quarter
May 5
Full

Hourly Weather History & Observations

Time (CDT) Temp. Dew Point Humidity Pressure Visibility Wind Dir Wind Speed Gust Speed Precip Events Conditions
12:15 AM - - N/A% 30.14 in 10.0 mi ESE 8.1 mph - N/A   Unknown
12:55 AM - - N/A% 30.14 in 10.0 mi ESE 8.1 mph - N/A   Unknown
1:15 AM - - N/A% 30.14 in 10.0 mi ESE 9.2 mph - N/A   Unknown
1:35 AM - - N/A% 30.14 in 10.0 mi ESE 5.8 mph - N/A   Unknown
1:55 AM - - N/A% 30.14 in 10.0 mi ESE 6.9 mph - N/A   Unknown
2:15 AM - - N/A% 30.14 in 10.0 mi ESE 6.9 mph - N/A   Unknown
2:35 AM - - N/A% 30.13 in 10.0 mi East 6.9 mph - N/A   Unknown
2:55 AM - - N/A% 30.13 in 10.0 mi ESE 5.8 mph - N/A   Unknown
3:15 AM - - N/A% 30.13 in 10.0 mi ESE 8.1 mph - N/A   Unknown
3:35 AM - - N/A% 30.12 in 10.0 mi ESE 8.1 mph - N/A   Unknown
3:55 AM - - N/A% 30.12 in 10.0 mi East 8.1 mph - N/A   Unknown
4:15 AM - - N/A% 30.12 in 10.0 mi ESE 6.9 mph - N/A   Unknown
4:35 AM - - N/A% 30.12 in 10.0 mi ESE 8.1 mph - N/A   Unknown
4:55 AM - - N/A% 30.12 in 10.0 mi ESE 6.9 mph - N/A   Unknown
5:15 AM - - N/A% 30.12 in 10.0 mi SE 9.2 mph - N/A   Unknown
5:35 AM - - N/A% 30.11 in 10.0 mi SE 11.5 mph 16.1 mph N/A   Unknown
5:55 AM - - N/A% 30.12 in 10.0 mi SE 10.4 mph 16.1 mph N/A   Unknown
6:15 AM - - N/A% 30.12 in 10.0 mi SE 11.5 mph - N/A   Unknown
6:35 AM - - N/A% 30.11 in 10.0 mi SE 10.4 mph - N/A   Unknown
6:55 AM - - N/A% 30.12 in 10.0 mi SE 8.1 mph - N/A   Unknown
7:15 AM - - N/A% 30.12 in 10.0 mi ESE 9.2 mph - N/A   Unknown
7:35 AM - - N/A% 30.12 in 10.0 mi SE 11.5 mph - N/A   Unknown
7:55 AM - - N/A% 30.12 in 10.0 mi SE 11.5 mph - N/A   Unknown
8:15 AM - - N/A% 30.13 in 10.0 mi SE 10.4 mph 16.1 mph N/A   Unknown
8:35 AM - - N/A% 30.13 in 10.0 mi SE 9.2 mph - N/A   Unknown
8:55 AM - - N/A% 30.13 in 10.0 mi SE 13.8 mph - N/A   Unknown
9:15 AM - - N/A% 30.13 in 10.0 mi SE 11.5 mph 18.4 mph N/A   Unknown
9:35 AM - - N/A% 30.13 in 10.0 mi SE 10.4 mph - N/A   Unknown
9:55 AM - - N/A% 30.12 in 10.0 mi SE 10.4 mph - N/A   Unknown
10:15 AM 57.2 °F 35.6 °F 44% 30.12 in 10.0 mi SE 13.8 mph 17.3 mph N/A   Unknown
10:35 AM 59.0 °F 35.6 °F 42% 30.12 in 10.0 mi SE 12.7 mph 20.7 mph N/A   Unknown
10:55 AM 60.8 °F 35.6 °F 39% 30.12 in 10.0 mi SSE 11.5 mph - N/A   Unknown
11:15 AM 60.8 °F 37.4 °F 42% 30.12 in 10.0 mi SSE 11.5 mph 16.1 mph N/A   Unknown
11:35 AM 62.6 °F 37.4 °F 39% 30.12 in 10.0 mi SSE 13.8 mph 17.3 mph N/A   Unknown
11:55 AM 62.6 °F 39.2 °F 42% 30.12 in 10.0 mi SSE 11.5 mph 17.3 mph N/A   Unknown
12:35 PM 62.6 °F 39.2 °F 42% 30.11 in 10.0 mi SSE 9.2 mph - N/A   Unknown
12:55 PM 62.6 °F 39.2 °F 42% 30.10 in 10.0 mi SE 10.4 mph - N/A   Unknown
1:15 PM 62.6 °F 39.2 °F 42% 30.09 in 10.0 mi SE 9.2 mph - N/A   Unknown
1:35 PM 64.4 °F 42.8 °F 45% 30.09 in 10.0 mi SSE 12.7 mph - N/A   Unknown
1:55 PM 64.4 °F 41.0 °F 42% 30.09 in 10.0 mi SE 13.8 mph 18.4 mph N/A   Unknown
2:15 PM 64.4 °F 42.8 °F 45% 30.08 in 10.0 mi SSE 10.4 mph - N/A   Unknown
2:35 PM 64.4 °F 42.8 °F 45% 30.08 in 10.0 mi SSE 10.4 mph - N/A   Unknown
2:55 PM 64.4 °F 42.8 °F 45% 30.06 in 10.0 mi SSE 10.4 mph - N/A   Unknown
3:15 PM 66.2 °F 44.6 °F 46% 30.05 in 10.0 mi SE 13.8 mph 17.3 mph N/A   Unknown
3:35 PM 66.2 °F 44.6 °F 46% 30.05 in 10.0 mi SSE 10.4 mph - N/A   Unknown
3:55 PM 64.4 °F 44.6 °F 49% 30.04 in 10.0 mi SSE 10.4 mph - N/A   Unknown
4:15 PM 64.4 °F 44.6 °F 49% 30.04 in 10.0 mi SSE 10.4 mph - N/A   Unknown
4:35 PM 64.4 °F 44.6 °F 49% 30.03 in 10.0 mi SSE 11.5 mph - N/A   Unknown
4:55 PM 66.2 °F 44.6 °F 46% 30.03 in 10.0 mi SSE 10.4 mph - N/A   Unknown
5:15 PM 64.4 °F 44.6 °F 49% 30.03 in 10.0 mi SE 10.4 mph - N/A   Unknown
5:35 PM 64.4 °F 46.4 °F 52% 30.02 in 10.0 mi SSE 11.5 mph - N/A   Unknown
5:55 PM 64.4 °F 46.4 °F 52% 30.02 in 10.0 mi SSE 12.7 mph - N/A   Unknown
6:15 PM 66.2 °F 46.4 °F 49% 30.01 in 10.0 mi SE 15.0 mph - N/A   Unknown
6:35 PM 62.6 °F 44.6 °F 52% 30.02 in 10.0 mi SE 12.7 mph - N/A   Unknown
6:55 PM 62.6 °F 44.6 °F 52% 30.01 in 10.0 mi SE 10.4 mph - N/A   Unknown
7:15 PM 62.6 °F 44.6 °F 52% 30.00 in 10.0 mi SE 12.7 mph - N/A   Unknown
7:35 PM 60.8 °F 44.6 °F 55% 30.00 in 10.0 mi SE 11.5 mph - N/A   Unknown
7:55 PM 59.0 °F 44.6 °F 59% 30.00 in 10.0 mi SE 6.9 mph - N/A   Unknown
8:15 PM 59.0 °F 42.8 °F 55% 29.99 in 10.0 mi SE 10.4 mph - N/A   Unknown
8:35 PM 57.2 °F 42.8 °F 59% 29.98 in 10.0 mi SE 9.2 mph 17.3 mph N/A   Unknown
8:55 PM 57.2 °F 42.8 °F 59% 29.99 in 10.0 mi SSE 9.2 mph - N/A   Unknown
9:15 PM 55.4 °F 42.8 °F 63% 29.99 in 10.0 mi SE 10.4 mph - N/A   Unknown
9:35 PM 55.4 °F 42.8 °F 63% 29.98 in 10.0 mi SE 15.0 mph - N/A   Unknown
9:55 PM 55.4 °F 42.8 °F 63% 29.98 in 10.0 mi SE 10.4 mph 16.1 mph N/A   Unknown
10:15 PM 55.4 °F 41.0 °F 58% 29.99 in 10.0 mi SSE 9.2 mph - N/A   Unknown
10:35 PM 55.4 °F 41.0 °F 58% 29.98 in 10.0 mi SE 9.2 mph - N/A   Unknown
10:55 PM 55.4 °F 42.8 °F 63% 29.98 in 10.0 mi SSE 6.9 mph - N/A   Unknown
11:15 PM 55.4 °F 42.8 °F 63% 29.99 in 10.0 mi SE 8.1 mph - N/A   Unknown
11:35 PM 55.4 °F 42.8 °F 63% 29.98 in 10.0 mi SSE 8.1 mph - N/A   Unknown
11:55 PM 55.4 °F 42.8 °F 63% 29.98 in 10.0 mi SE 9.2 mph - N/A   Unknown